FW9431 Weather Reports


time (UTC)temp
F
wind
direction
speed
knots
gust
knots
rain 1hr
in
rain 24hr
in
rain mn
in
humidity
%
barometer
mb
20260502233433 44 2 0.0 0.9 0.00 0.00 0.00 62 1015.3
20260502232930 44 358 0.0 0.9 0.00 0.00 0.00 61 1015.5
20260502232427 44 357 0.9 0.9 0.00 0.00 0.00 60 1015.3
20260502231924 44 332 0.9 0.9 0.00 0.00 0.00 60 1015.5
20260502231421 45 357 0.0 1.7 0.00 0.00 0.00 60 1015.2
20260502230919 44 351 0.9 1.7 0.00 0.00 0.00 58 1015.2
20260502230417 45 13 1.7 2.6 0.00 0.00 0.00 58 1015.4
20260502225915 45 331 1.7 4.3 0.00 0.00 0.00 57 1015.4
20260502225410 45 334 1.7 1.7 0.00 0.00 0.00 59 1015.5
20260502224907 45 25 4.3 6.1 0.00 0.00 0.00 58 1015.4
20260502224403 45 343 0.9 2.6 0.00 0.00 0.00 59 1015.6
20260502223900 45 293 2.6 5.2 0.00 0.00 0.00 61 1015.1
20260502223358 45 342 2.6 4.3 0.00 0.00 0.00 60 1015.5
20260502222856 45 11 0.0 2.6 0.00 0.00 0.00 62 1015.3
20260502222354 45 296 2.6 4.3 0.00 0.00 0.00 61 1015.5
20260502221849 45 315 2.6 5.2 0.00 0.00 0.00 62 1015.3
20260502221345 45 355 0.9 1.7 0.00 0.00 0.00 62 1015.4
20260502220843 45 288 1.7 6.1 0.00 0.00 0.00 62 1015.3
20260502220339 45 79 1.7 6.1 0.00 0.00 0.00 64 1015.6
20260502215835 46 342 3.5 7.0 0.00 0.00 0.00 61 1015.2
20260502215333 46 2 0.9 2.6 0.00 0.00 0.00 60 1015.1
20260502214829 46 13 1.7 5.2 0.00 0.00 0.00 56 1014.9
20260502214326 46 356 2.6 5.2 0.00 0.00 0.00 55 1015.2
20260502213824 46 351 3.5 7.8 0.00 0.00 0.00 56 1015.2
20260502213320 46 321 2.6 5.2 0.00 0.00 0.00 57 1015.1
20260502212819 46 354 2.6 6.1 0.00 0.00 0.00 57 1015.0
20260502212317 46 355 2.6 7.0 0.00 0.00 0.00 60 1015.0
20260502211814 46 350 1.7 6.1 0.00 0.00 0.00 58 1015.0
20260502211310 47 294 4.3 6.1 0.00 0.00 0.00 57 1014.9
20260502210808 46 344 0.9 0.9 0.00 0.00 0.00 58 1014.8
20260502210305 46 306 3.5 4.3 0.00 0.00 0.00 57 1014.9
20260502205802 46 317 3.5 7.0 0.00 0.00 0.00 56 1014.9
20260502205258 46 355 1.7 7.0 0.00 0.00 0.00 59 1015.1
20260502204755 46 349 2.6 4.3 0.00 0.00 0.00 58 1014.9
20260502204252 46 339 4.3 6.1 0.00 0.00 0.00 59 1015.1
20260502203750 46 313 2.6 5.2 0.00 0.00 0.00 59 1014.7
20260502203248 46 212 3.5 5.2 0.00 0.00 0.00 60 1015.0
20260502202747 46 340 1.7 2.6 0.00 0.00 0.00 62 1014.9
20260502202245 46 334 1.7 2.6 0.00 0.00 0.00 60 1015.0
20260502201743 46 337 0.9 2.6 0.00 0.00 0.00 61 1014.9
20260502201239 46 288 4.3 5.2 0.00 0.00 0.00 61 1015.0
20260502200735 46 341 4.3 6.1 0.00 0.00 0.00 61 1015.1
20260502200231 47 339 0.9 5.2 0.00 0.00 0.00 60 1014.9
20260502195730 46 279 2.6 5.2 0.00 0.00 0.00 60 1015.1
20260502195226 46 43 2.6 5.2 0.00 0.00 0.00 58 1014.9
20260502194723 46 3 1.7 2.6 0.00 0.00 0.00 58 1015.3
20260502194220 46 212 1.7 2.6 0.00 0.00 0.00 60 1015.2
20260502193715 46 303 2.6 5.2 0.00 0.00 0.00 60 1015.1
20260502193213 46 32 0.9 7.0 0.00 0.00 0.00 62 1015.2
20260502192708 45 6 2.6 5.2 0.00 0.00 0.00 63 1015.3
20260502192206 45 346 2.6 5.2 0.00 0.00 0.00 61 1015.4
20260502191657 46 350 6.1 8.7 0.00 0.00 0.00 58 1015.2
20260502191155 46 304 4.3 6.1 0.00 0.00 0.00 57 1015.4
20260502190652 46 346 1.7 4.3 0.00 0.00 0.00 56 1015.2
20260502190144 46 338 3.5 5.2 0.00 0.00 0.00 57 1015.4
20260502185638 45 359 0.9 4.3 0.00 0.00 0.00 58 1015.5
20260502185135 46 354 0.9 6.1 0.00 0.00 0.00 60 1015.2
20260502184631 47 348 1.7 5.2 0.00 0.00 0.00 57 1015.5
20260502184127 48 330 4.3 8.7 0.00 0.00 0.00 53 1015.6
20260502183624 46 350 4.3 7.0 0.00 0.00 0.00 55 1015.3
20260502183120 46 2 2.6 7.0 0.00 0.00 0.00 55 1015.5
20260502182615 47 28 2.6 4.3 0.00 0.00 0.00 54 1015.3
20260502182111 47 359 0.9 5.2 0.00 0.00 0.00 53 1015.5
20260502181609 47 0 0.9 4.3 0.00 0.00 0.00 51 1015.6
20260502181108 48 279 4.3 7.8 0.00 0.00 0.00 52 1015.5
20260502180604 46 272 4.3 6.1 0.00 0.00 0.00 52 1015.3
20260502164008 46 346 2.6 8.7 0.00 0.00 0.00 55 1015.4
20260502163503 46 285 2.6 7.0 0.00 0.00 0.00 56 1015.6
20260502163000 45 303 1.7 8.7 0.00 0.00 0.00 59 1015.9
20260502162457 45 343 3.5 7.0 0.00 0.00 0.00 57 1015.7
20260502161954 46 297 2.6 7.8 0.00 0.00 0.00 59 1015.9
20260502161450 44 299 6.1 6.1 0.00 0.00 0.00 60 1016.1
20260502160949 44 359 2.6 5.2 0.00 0.00 0.00 61 1015.8
20260502160446 44 0 3.5 5.2 0.00 0.00 0.00 62 1015.8
20260502151930 45 271 5.2 11.3 0.00 0.00 0.00 56 1015.7
20260502151426 44 18 2.6 6.1 0.00 0.00 0.00 59 1015.8
20260502150924 45 339 5.2 8.7 0.00 0.00 0.00 58 1015.7
20260502150420 44 0 1.7 7.8 0.00 0.00 0.00 61 1015.6
20260502130306 41 315 4.3 6.1 0.00 0.00 0.00 72 1015.6
20260502123752 40 339 2.6 2.6 0.00 0.00 0.00 74 1015.4
20260502123248 40 0 0.9 2.6 0.00 0.00 0.00 76 1015.3
20260502122745 39 350 0.9 2.6 0.00 0.00 0.00 76 1015.2
20260502122241 39 12 0.9 2.6 0.00 0.00 0.00 76 1015.2
20260502121740 39 332 2.6 4.3 0.00 0.00 0.00 78 1015.1
20260502121237 39 353 0.9 2.6 0.00 0.00 0.00 77 1015.1
20260502120733 39 262 1.7 4.3 0.00 0.00 0.00 78 1015.3
20260502120230 39 15 0.0 2.6 0.00 0.00 0.00 80 1015.2
20260502115728 38 9 0.9 1.7 0.00 0.00 0.00 79 1015.2
20260502115225 38 350 0.9 0.9 0.00 0.00 0.00 80 1015.1
20260502114720 37 7 0.9 2.6 0.00 0.00 0.00 81 1015.0
20260502114218 37 338 0.9 0.9 0.00 0.00 0.00 81 1015.0
20260502113715 37 342 0.9 1.7 0.00 0.00 0.00 82 1015.0
20260502113213 37 333 0.9 1.7 0.00 0.00 0.00 83 1015.1
20260502112711 36 359 0.9 0.9 0.00 0.00 0.00 84 1015.0
20260502112208 36 357 0.0 1.7 0.00 0.00 0.00 86 1015.0
20260502111705 35 350 0.9 1.7 0.00 0.00 0.00 88 1015.2
20260502111203 34 332 0.0 0.9 0.00 0.00 0.00 90 1015.0
20260502110700 34 345 0.9 0.9 0.00 0.00 0.00 92 1015.2
20260502110157 33 355 0.0 0.9 0.00 0.00 0.00 93 1015.0
20260502105655 33 337 0.0 0.9 0.00 0.00 0.00 93 1015.0
20260502105152 33 343 0.0 0.9 0.00 0.00 0.00 93 1015.1
20260502104649 33 348 0.9 1.7 0.00 0.00 0.00 93 1015.2
20260502104147 33 346 0.0 0.0 0.00 0.00 0.00 93 1015.1
20260502103644 33 350 0.0 0.9 0.00 0.00 0.00 93 1014.6
20260502103141 33 328 0.9 1.7 0.00 0.00 0.00 93 1014.9
20260502102638 33 343 0.0 0.9 0.00 0.00 0.00 93 1015.0
20260502102135 33 326 1.7 1.7 0.00 0.00 0.00 93 1014.9
20260502101633 33 331 0.0 1.7 0.00 0.00 0.00 93 1015.1
20260502101131 33 348 0.0 1.7 0.00 0.00 0.00 93 1014.8
20260502100629 33 339 0.0 0.0 0.00 0.00 0.00 93 1014.8
20260502100127 33 355 0.0 0.0 0.00 0.00 0.00 93 1014.9
20260502091101 33 347 0.0 0.0 0.00 0.00 0.00 93 1015.1
20260502090558 33 350 0.0 0.0 0.00 0.00 0.00 93 1015.0
20260502071453 35 340 0.9 1.7 0.00 0.00 0.00 93 1014.7
20260502070950 35 347 0.0 0.0 0.00 0.00 0.00 93 1014.6
20260502070448 35 345 0.0 0.9 0.00 0.00 0.00 93 1014.7
20260502065947 35 351 0.0 0.0 0.00 0.00 0.00 93 1014.9
20260502065445 35 356 0.0 0.0 0.00 0.00 0.00 93 1015.0
20260502064942 36 358 0.0 0.0 0.00 0.00 0.00 93 1015.2
20260502064440 35 348 0.0 0.0 0.00 0.00 0.00 93 1015.1
20260502063937 35 355 0.0 0.0 0.00 0.00 0.00 93 1015.1
20260502063435 35 352 0.0 0.0 0.00 0.00 0.00 93 1015.0
20260502062932 35 354 0.0 0.0 0.00 0.00 0.00 93 1015.2
20260502062429 35 352 0.0 0.0 0.00 0.00 0.00 93 1015.1
20260502061928 35 351 0.0 0.0 0.00 0.00 0.00 93 1015.0
20260502061426 35 351 0.0 0.0 0.00 0.00 0.00 93 1015.3
20260502060921 36 351 0.0 0.0 0.00 0.00 0.00 93 1015.2
20260502060417 36 345 0.0 0.0 0.00 0.00 0.00 93 1015.3
20260502055914 35 345 0.0 0.0 0.00 0.00 0.00 93 1015.3
20260502055411 35 355 0.0 0.0 0.00 0.00 0.00 93 1015.2
20260502054911 36 355 0.0 0.0 0.00 0.00 0.00 93 1015.2
20260502054408 36 352 0.0 0.0 0.00 0.00 0.00 93 1015.4
20260502053906 37 345 0.0 0.9 0.00 0.00 0.00 93 1015.3
20260502053404 37 345 0.0 0.0 0.00 0.00 0.00 93 1015.0
20260502052900 37 347 0.0 0.0 0.00 0.00 0.00 93 1015.4
20260502052359 37 356 0.0 0.0 0.00 0.00 0.00 93 1015.3
20260502051855 37 357 0.0 0.0 0.00 0.00 0.00 93 1015.4
20260502051354 37 351 0.0 0.0 0.00 0.00 0.00 93 1015.2
20260502050851 37 343 0.9 0.9 0.00 0.00 0.00 93 1015.2
20260502050347 38 342 0.9 0.9 0.00 0.00 0.00 93 1015.5
20260502045844 38 349 0.0 0.0 0.00 0.00 0.00 93 1015.2
20260502045341 37 341 0.9 1.7 0.00 0.00 0.00 93 1015.3
20260502044838 37 346 0.0 0.9 0.00 0.00 0.00 93 1015.0
20260502044334 37 347 0.0 0.0 0.00 0.00 0.00 93 1015.1
20260502043831 37 350 0.0 0.0 0.00 0.00 0.00 93 1015.2
20260502043328 37 346 0.0 0.0 0.00 0.00 0.00 93 1015.2
20260502042823 37 344 0.0 0.0 0.00 0.00 0.00 93 1015.1
20260502042320 38 345 0.0 0.0 0.00 0.00 0.00 93 1015.4
20260502041817 38 344 0.0 0.0 0.00 0.00 0.00 93 1015.4
20260502041314 38 345 0.0 0.0 0.00 0.00 0.00 93 1015.5
20260502040812 37 353 0.0 0.0 0.00 0.00 0.00 93 1015.5
20260502040309 38 354 0.0 0.0 0.00 0.00 0.00 93 1015.5
20260502035804 37 353 0.0 0.0 0.00 0.21 0.21 93 1015.5
20260502035301 38 0 0.0 0.0 0.00 0.21 0.21 93 1015.3
20260502034758 38 355 0.0 0.0 0.00 0.21 0.21 93 1015.4
20260502034257 38 348 0.0 0.0 0.00 0.21 0.21 93 1015.4
20260502033755 38 348 0.0 0.0 0.00 0.21 0.21 93 1015.2
20260502033252 38 355 0.0 0.0 0.00 0.21 0.21 93 1015.3
20260502032749 38 355 0.0 0.0 0.00 0.21 0.21 93 1015.3
20260502032245 39 353 0.0 0.0 0.00 0.21 0.21 93 1015.5
20260502031743 39 353 0.0 0.0 0.00 0.21 0.21 93 1015.6
20260502031240 39 351 0.0 0.0 0.00 0.21 0.21 93 1015.4
20260502030739 40 346 0.9 0.9 0.00 0.21 0.21 93 1015.5
20260502030237 40 350 0.0 0.0 0.00 0.21 0.21 93 1015.4
20260502025734 40 335 0.9 0.9 0.00 0.21 0.21 93 1015.6
20260502025232 40 355 0.0 0.0 0.00 0.21 0.21 93 1015.6
20260502024729 41 354 0.0 0.0 0.00 0.21 0.21 92 1015.4
20260502024227 41 348 0.0 0.9 0.00 0.21 0.21 92 1015.5
20260502023725 41 354 0.0 0.0 0.00 0.21 0.21 92 1015.2
20260502023222 41 355 0.0 0.0 0.00 0.21 0.21 92 1015.2
20260502022720 42 349 0.0 0.9 0.00 0.21 0.21 91 1015.4
20260502022216 42 353 0.0 0.0 0.00 0.21 0.21 91 1015.2
20260502021713 42 355 0.0 0.0 0.00 0.21 0.21 91 1015.2
20260502021210 42 348 0.0 0.9 0.00 0.21 0.21 90 1014.9
20260502020707 42 352 0.0 0.0 0.00 0.21 0.21 90 1015.0
20260502020204 42 352 0.0 0.0 0.00 0.21 0.21 89 1014.9
20260502015702 42 337 0.9 0.9 0.00 0.21 0.21 88 1014.9
20260502015158 42 347 0.9 0.9 0.00 0.21 0.21 87 1014.8
20260502014656 42 351 0.0 0.9 0.00 0.21 0.21 87 1014.8
20260502014153 43 349 0.0 0.9 0.00 0.21 0.21 86 1014.7
20260502013648 43 346 0.0 0.9 0.00 0.21 0.21 85 1015.0
20260502013144 43 359 0.9 0.9 0.00 0.21 0.21 84 1014.8
20260502012642 43 358 0.0 0.9 0.00 0.21 0.21 84 1014.5
20260502012140 44 354 0.0 4.3 0.00 0.21 0.21 83 1014.6
20260502011636 44 11 0.9 2.6 0.00 0.21 0.21 83 1014.2
20260502011132 44 355 0.0 0.9 0.00 0.21 0.21 85 1013.9
20260502010630 44 359 0.0 1.7 0.00 0.21 0.21 84 1014.2
20260502010126 44 346 1.7 1.7 0.00 0.21 0.21 84 1013.9
20260502005624 44 357 0.0 0.0 0.00 0.21 0.21 83 1013.9
20260502005121 44 354 0.0 0.9 0.00 0.21 0.21 81 1014.2
20260502004617 44 356 0.0 1.7 0.00 0.21 0.21 81 1014.0
20260502004114 44 345 0.9 0.9 0.00 0.21 0.21 82 1014.0
20260502003612 43 359 0.0 1.7 0.00 0.21 0.21 85 1014.2
20260502003108 43 342 0.0 0.9 0.00 0.21 0.21 87 1014.0
20260502002604 42 356 0.0 0.0 0.00 0.21 0.21 87 1014.0
20260502002102 43 356 0.0 0.0 0.00 0.21 0.21 86 1014.1
20260502001600 43 346 0.0 0.9 0.00 0.21 0.21 85 1014.0
20260502001056 44 357 0.0 0.0 0.00 0.21 0.21 82 1013.8
20260502000555 44 357 0.0 0.0 0.00 0.21 0.21 80 1013.9
20260502000052 45 356 0.0 0.0 0.00 0.21 0.21 79 1013.5
20260501235547 46 355 0.0 0.0 0.00 0.21 0.21 77 1013.7
20260501235044 46 352 0.0 1.7 0.00 0.21 0.21 75 1013.4
20260501234539 47 350 0.0 0.0 0.00 0.21 0.21 74 1013.4
20260501234038 46 349 0.0 0.0 0.00 0.21 0.21 76 1013.3